CZ-4 DEB, 26143

Orbit data source: Space-Track

CZ-4 DEB, 26143 is space debris in SSO originally from a launch on Thu, 14 Oct 1999 UTC launched from the Taiyaun Space Center, China (TSC). Debris objects in space refer to the collection of defunct objects orbiting the Earth. Examples of debris include non-operational satellites, rocket bodies, and fragments generated from explosions, collisions, or faulty payload assembly.

Loading next visibility...
Identifier
26143, 1999-057AF
Orbit
SSO
Country
Flag of CNCN / PRC
Related business
Manufacturer
Unknown
Mission
Spacecraft
Bus & Motor
Unknown
Mass
Unknown
Launch date (UTC)
1999-10-14 (27 years ago)
Launch vehicle
Unknown
Launch site
Taiyaun Space Center, China (TSC)
Object type
Payload
Rocket body
Debris
Shape & HBR
Unknown shape, 0.1 m
Radar Cross Section
Small (<0.1 m²)

Expand to show TLE details & history
Last TLE update: 13 hours ago

TLE from 13 hours ago
0 CZ-4 DEB
1 26143U 99057AF  26118.88952391  .00000236  00000-0  22630-3 0  9996
2 26143  98.9940  84.6586 0474893 250.2969 166.0393 13.47600592281086
Epoch: 2026-04-28T21:20Z
TLE epoch observation values (Epoch: 2026-04-28T21:20:54.865Z)
Latitude
56.57555°
Longitude
-106.23514°
Altitude
1,435.226 km
Speed
6.982 km/s
True Right ascension
04h 43m 24s
True Declination
56° 25' 52"
Sunlit
Object was in daylight at epoch
Visualization orbit readout
Latitude
Unknown
Longitude
Unknown
Altitude
Unknown
Speed
Unknown
Apparent Right ascension
Unknown
Apparent Declination
Unknown
Sunlit
N/A
Visualization observer readout
Local Sidereal Time
18:05:01
Azimuth
Unknown
Elevation
Unknown
Doppler factor
Unknown
Orbital elements
Apogee altitude
1,432.464 km
Perigee altitude
724.256 km
Semi-major axis
7,456.497 km
Eccentricity
0.04749
Inclination
98.994°
RAAN
84.6586°
Arg. of periapsis
250.2969°
True anomaly
167.28043°
Mean anomaly
166.0393°
Eccentric anomaly
166.66679°
Mean motion
3.37086 °/min
Orbital period
106.8 mins
BSTAR
0.0002263
Loading maneuver chart data...
Computing Atmospheric mass density...

Documentation

Showing up to 5 results
|